When you browse on this site, cookies collect data to enhance your experience and personalize the content and advertising you see.
Visit our Privacy Policy to learn more. By continuing to use the site, you agree to this use of cookies and data.
EN

Hourly Weather Syricy

Today, 25 September, Friday

Time Temperature Precipitation Wind Pressure Humidity
00:00 +11°C° 0 mm 3 mps 747 mmHg 82%
01:00 +10°C° 0 mm 3 mps 747 mmHg 82%
02:00 +10°C° 0 mm 3 mps 747 mmHg 81%
03:00 +10°C° 0 mm 3 mps 747 mmHg 81%
04:00 +10°C° 0 mm 3 mps 747 mmHg 82%
05:00 +9°C° 0 mm 3 mps 747 mmHg 82%
06:00 +11°C° 0 mm 3 mps 746 mmHg 79%
07:00 +12°C° 0 mm 3 mps 746 mmHg 75%
08:00 +13°C° 0 mm 3 mps 746 mmHg 71%
09:00 +16°C° 0 mm 3 mps 746 mmHg 68%
10:00 +17°C° 0 mm 3 mps 746 mmHg 64%
11:00 +19°C° 0 mm 3 mps 746 mmHg 61%
12:00 +19°C° 0 mm 3 mps 746 mmHg 61%
13:00 +20°C° 0 mm 4 mps 746 mmHg 60%
14:00 +20°C° 0 mm 4 mps 746 mmHg 60%
15:00 +19°C° 0 mm 4 mps 745 mmHg 65%
16:00 +18°C° 0 mm 3 mps 745 mmHg 71%
17:00 +17°C° 0 mm 3 mps 745 mmHg 76%
18:00 +17°C° 0 mm 3 mps 745 mmHg 77%
19:00 +16°C° 0 mm 3 mps 745 mmHg 79%
20:00 +16°C° 0 mm 3 mps 745 mmHg 81%
21:00 +16°C° 0 mm 3 mps 745 mmHg 77%
22:00 +15°C° 0 mm 4 mps 745 mmHg 73%
23:00 +15°C° 0 mm 4 mps 745 mmHg 69%

Tomorrow, 26 September, Saturday

Time Temperature Precipitation Wind Pressure Humidity
00:00 +15°C° 0 mm 4 mps 745 mmHg 69%
01:00 +14°C° 0 mm 4 mps 745 mmHg 69%
02:00 +14°C° 0 mm 4 mps 745 mmHg 69%
03:00 +13°C° 0 mm 4 mps 745 mmHg 70%
04:00 +13°C° 0 mm 4 mps 745 mmHg 70%
05:00 +12°C° 0 mm 4 mps 745 mmHg 70%
06:00 +13°C° 0 mm 4 mps 745 mmHg 70%
07:00 +14°C° 0 mm 4 mps 745 mmHg 69%
08:00 +14°C° 0 mm 5 mps 745 mmHg 68%
09:00 +16°C° 0 mm 5 mps 745 mmHg 65%
10:00 +17°C° 0 mm 5 mps 745 mmHg 62%
11:00 +20°C° 0 mm 5 mps 746 mmHg 59%
12:00 +21°C° 0 mm 5 mps 746 mmHg 58%
13:00 +21°C° 0 mm 5 mps 746 mmHg 57%
14:00 +22°C° 0 mm 5 mps 745 mmHg 56%
15:00 +21°C° 0 mm 5 mps 745 mmHg 60%
16:00 +20°C° 0 mm 4 mps 746 mmHg 65%
17:00 +19°C° 0 mm 4 mps 746 mmHg 70%
18:00 +18°C° 0 mm 4 mps 746 mmHg 70%
19:00 +17°C° 0 mm 4 mps 746 mmHg 70%
20:00 +17°C° 0 mm 4 mps 746 mmHg 70%
21:00 +15°C° 0 mm 4 mps 746 mmHg 70%
22:00 +15°C° 0 mm 4 mps 746 mmHg 70%
23:00 +14°C° 0 mm 4 mps 746 mmHg 70%

Day after tomorrow, 27 September, Sunday

Time Temperature Precipitation Wind Pressure Humidity
00:00 +14°C° 0 mm 4 mps 746 mmHg 70%
01:00 +13°C° 0 mm 4 mps 747 mmHg 69%
02:00 +13°C° 0 mm 4 mps 747 mmHg 68%
03:00 +13°C° 0 mm 4 mps 747 mmHg 68%
04:00 +12°C° 0 mm 4 mps 746 mmHg 68%
05:00 +12°C° 0 mm 4 mps 746 mmHg 68%
06:00 +13°C° 0 mm 4 mps 747 mmHg 67%
07:00 +13°C° 0 mm 5 mps 747 mmHg 66%
08:00 +14°C° 0 mm 5 mps 747 mmHg 65%
09:00 +16°C° 0 mm 5 mps 747 mmHg 62%
10:00 +17°C° 0 mm 6 mps 747 mmHg 58%
11:00 +20°C° 0 mm 6 mps 747 mmHg 54%
12:00 +20°C° 0 mm 6 mps 747 mmHg 53%
13:00 +21°C° 0 mm 6 mps 747 mmHg 51%
14:00 +21°C° 0 mm 6 mps 747 mmHg 50%
15:00 +20°C° 0 mm 6 mps 747 mmHg 53%
16:00 +17°C° 0 mm 5 mps 747 mmHg 56%
17:00 +16°C° 0 mm 5 mps 747 mmHg 60%
18:00 +15°C° 0 mm 5 mps 747 mmHg 59%
19:00 +15°C° 0 mm 5 mps 747 mmHg 58%
20:00 +14°C° 0 mm 5 mps 747 mmHg 57%
21:00 +14°C° 0 mm 4 mps 747 mmHg 59%
22:00 +14°C° 0 mm 4 mps 747 mmHg 60%
23:00 +14°C° 0 mm 4 mps 747 mmHg 62%

28 September, Monday

Time Temperature Precipitation Wind Pressure Humidity
00:00 +13°C° 0.2 mm 4 mps 747 mmHg 68%
01:00 +13°C° 0.2 mm 3 mps 747 mmHg 74%
02:00 +12°C° 0.2 mm 3 mps 747 mmHg 80%
03:00 +12°C° 1 mm 3 mps 747 mmHg 83%
04:00 +12°C° 1 mm 3 mps 747 mmHg 86%
05:00 +11°C° 1 mm 4 mps 747 mmHg 90%
06:00 +11°C° 0.8 mm 3 mps 747 mmHg 91%
07:00 +11°C° 0.8 mm 3 mps 747 mmHg 93%
08:00 +11°C° 0.8 mm 3 mps 747 mmHg 94%
09:00 +11°C° 0.4 mm 3 mps 747 mmHg 94%
10:00 +12°C° 0.4 mm 3 mps 748 mmHg 95%
11:00 +13°C° 0.4 mm 2 mps 748 mmHg 95%
12:00 +13°C° 0.1 mm 2 mps 748 mmHg 95%
13:00 +14°C° 0.1 mm 2 mps 748 mmHg 94%
14:00 +15°C° 0.1 mm 2 mps 749 mmHg 93%
15:00 +14°C° 0 mm 2 mps 749 mmHg 93%
16:00 +14°C° 0 mm 1 mps 749 mmHg 93%
17:00 +14°C° 0 mm 1 mps 749 mmHg 93%
18:00 +13°C° 0 mm 1 mps 749 mmHg 93%
19:00 +13°C° 0 mm 1 mps 749 mmHg 94%
20:00 +12°C° 0 mm 1 mps 749 mmHg 94%
21:00 +11°C° 0 mm 1 mps 750 mmHg 94%
22:00 +11°C° 0 mm 1 mps 750 mmHg 93%
23:00 +11°C° 0 mm 1 mps 750 mmHg 93%

29 September, Tuesday

Time Temperature Precipitation Wind Pressure Humidity
00:00 +10°C° 0 mm 1 mps 750 mmHg 93%
01:00 +10°C° 0 mm 1 mps 750 mmHg 93%
02:00 +8°C° 0 mm 0 mps 750 mmHg 92%
03:00 +9°C° 0 mm 1 mps 750 mmHg 92%
04:00 +9°C° 0 mm 1 mps 750 mmHg 92%
05:00 +9°C° 0 mm 1 mps 750 mmHg 92%
06:00 +10°C° 0 mm 1 mps 750 mmHg 90%
07:00 +10°C° 0 mm 1 mps 750 mmHg 89%
08:00 +11°C° 0 mm 1 mps 750 mmHg 87%
09:00 +13°C° 0 mm 1 mps 750 mmHg 82%
10:00 +14°C° 0 mm 1 mps 750 mmHg 76%
11:00 +16°C° 0 mm 2 mps 750 mmHg 71%
12:00 +16°C° 0 mm 2 mps 750 mmHg 69%
13:00 +17°C° 0 mm 2 mps 749 mmHg 66%
14:00 +17°C° 0 mm 2 mps 749 mmHg 64%
15:00 +16°C° 0 mm 2 mps 749 mmHg 69%
16:00 +15°C° 0 mm 2 mps 749 mmHg 74%
17:00 +14°C° 0 mm 2 mps 749 mmHg 80%
18:00 +13°C° 0 mm 2 mps 749 mmHg 84%
19:00 +12°C° 0 mm 2 mps 749 mmHg 89%
20:00 +10°C° 0 mm 2 mps 749 mmHg 93%
21:00 +10°C° 0 mm 2 mps 748 mmHg 94%
22:00 +10°C° 0 mm 2 mps 748 mmHg 95%
23:00 +9°C° 0 mm 2 mps 748 mmHg 96%

30 September, Wednesday

Time Temperature Precipitation Wind Pressure Humidity
00:00 +9°C° 0 mm 2 mps 748 mmHg 97%
01:00 +9°C° 0 mm 2 mps 748 mmHg 97%
02:00 +9°C° 0 mm 2 mps 748 mmHg 97%
03:00 +9°C° 0 mm 3 mps 748 mmHg 97%
04:00 +9°C° 0 mm 3 mps 748 mmHg 96%
05:00 +9°C° 0 mm 3 mps 747 mmHg 96%
06:00 +9°C° 0 mm 3 mps 747 mmHg 93%
07:00 +10°C° 0 mm 3 mps 747 mmHg 90%
08:00 +11°C° 0 mm 4 mps 747 mmHg 87%
09:00 +12°C° 0 mm 4 mps 747 mmHg 82%
10:00 +13°C° 0 mm 4 mps 747 mmHg 77%
11:00 +14°C° 0 mm 4 mps 747 mmHg 72%
12:00 +14°C° 0 mm 4 mps 747 mmHg 71%
13:00 +15°C° 0 mm 4 mps 747 mmHg 70%
14:00 +15°C° 0 mm 4 mps 747 mmHg 69%
15:00 +14°C° 0 mm 4 mps 747 mmHg 69%
16:00 +13°C° 0 mm 4 mps 747 mmHg 70%
17:00 +12°C° 0 mm 4 mps 747 mmHg 70%
18:00 +11°C° 0.6 mm 4 mps 747 mmHg 77%
19:00 +10°C° 0.6 mm 4 mps 747 mmHg 83%
20:00 +8°C° 0.6 mm 4 mps 747 mmHg 90%
21:00 +8°C° 0.2 mm 4 mps 747 mmHg 90%
22:00 +10°C° 0.2 mm 4 mps 747 mmHg 89%
23:00 +10°C° 0.2 mm 4 mps 747 mmHg 88%
Show more